Simultaneous Nadir Overpasses (SNOs) Predictions

Prediction of SNOs between LANDSAT-8 and METOP-B Satellite Orbit:

Table of predicted SNOs for the next 14.0 days since TLE Epoch: 8/6/2022
Index Date (LANDSAT-8) Time (LANDSAT-8) Lat,Lon (LANDSAT-8) SZA (LANDSAT-8 ) Date (METOP-B) Time (METOP-B) Lat,Lon (METOP-B) SZA (METOP-B ) Distance(km) Time Diff (sec)
1 08/07/2022 21:01:29 81.15, -94.87 66.95 08/07/2022 21:00:16 81.15, -95.00 66.91 2.11 73
2 08/07/2022 21:50:55 -81.17, 73.07 113.00 08/07/2022 21:50:55 -81.17, 73.05 113.00 0.54 0
3 08/07/2022 22:40:20 81.20,-118.82 67.08 08/07/2022 22:41:34 81.19,-118.99 67.09 2.95 74
4 08/10/2022 16:35:45 81.16, -28.28 67.79 08/10/2022 16:34:36 81.16, -28.16 67.78 2.12 69
5 08/10/2022 17:25:11 -81.18, 139.68 112.16 08/10/2022 17:25:16 -81.17, 139.51 112.18 2.93 5
6 08/13/2022 12:10:00 81.16, 38.25 68.66 08/13/2022 12:08:56 81.16, 38.27 68.63 0.33 64
7 08/13/2022 12:59:26 -81.19,-153.76 111.29 08/13/2022 12:59:35 -81.19,-153.66 111.27 1.54 9
8 08/16/2022 07:44:16 81.17, 104.74 69.55 08/16/2022 07:43:17 81.16, 104.68 69.51 1.10 59
9 08/16/2022 08:33:42 -81.19, -87.25 110.39 08/16/2022 08:33:56 -81.19, -87.25 110.39 0.50 14
10 08/19/2022 03:18:32 81.17, 171.17 70.46 08/19/2022 03:17:38 81.16, 171.06 70.43 1.82 54



Historial Predications of SNOs between LANDSAT-8 and METOP-B
